Regional Weather Roundup
Issued by NWS Newport/Morehead, NC

Current Version | Previous Version | Text Only | Print | Product List | Glossary On
Versions: 1 2 3 4 5 6 7 8 9 10 11 12 13 14 15 16 17 18 19 20 21 22 23 24 25 26 27 28 29 30 31 32 33 34 35 36 37 38 39 40 41 42 43 44 45 46 47 48 49 50
000
ASUS42 KMHX 201510
RWRMHX
WEATHER ROUNDUP FOR EASTERN NORTH CAROLINA
NATIONAL WEATHER SERVICE NEWPORT/MOREHEAD CITY NC
1100 AM EDT SAT SEP 20 2014

NOTE: "FAIR" INDICATES FEW OR NO CLOUDS BELOW 12,000 FEET
WITH NO SIGNIFICANT WEATHER AND/OR OBSTRUCTIONS TO VISIBILITY

NCZ015>017-031-032-045>047-102-103-201600-
NORTH COAST

CITY           SKY/WX    TMP DP  RH WIND       PRES   REMARKS
EDENTON        PTSUNNY   74  69  85 NE9       30.17F
ELIZABETH CITY PTSUNNY   76  68  76 NE16      30.17F
KITTY HAWK     CLOUDY    74  69  82 NE10G17   30.14S
MANTEO         LGT RAIN  72  69  89 NE13      30.15S

$$

NCZ045>047-081-094-103-104-201600-
CENTRAL COAST

CITY           SKY/WX    TMP DP  RH WIND       PRES   REMARKS
FRISCO         LGT RAIN  70  70 100 VRB6      30.11F
SWANQUARTER      N/A     75 N/A N/A NE3G16    30.09S

$$

NCZ095-097-098-100-101-201600-
SOUTHERN COAST

CITY           SKY/WX    TMP DP  RH WIND       PRES   REMARKS
BEAUFORT       LGT RAIN  74  70  87 NE10      30.11S
CEDAR ISLAND     N/A     72 N/A N/A N18G30    30.15S
JACKSONVILLE   CLOUDY    73  66  78 N13       30.12R
NEWPORT        NOT AVBL
PINEY ISLAND   HVY RAIN  75  70  84 NE15G25   30.11S
WILMINGTON     CLOUDY    73  65  75 NE14      30.11R


$$

NCZ011>013-027>030-043-044-078>080-089-090>093-098-201600-
COASTAL PLAIN

CITY           SKY/WX    TMP DP  RH WIND       PRES   REMARKS
AHOSKIE        PTSUNNY   73  65  75 N9        30.20S
CLINTON        CLOUDY    73  65  76 NE10G17   30.16R
ELIZABETHTOWN  PTSUNNY   71  64  77 N3        30.14S
GOLDSBORO      PTSUNNY   73  68  86 N7        30.16R
GREENVILLE     PTSUNNY   72  64  78 NE13      30.19R
HAVELOCK       CLOUDY    76  68  76 NE9       30.13S
KENANSVILLE    PTSUNNY   74  63  69 N13       30.16R
KINSTON        PTSUNNY   75  64  69 N9        30.17R
NEW BERN       CLOUDY    76  67  73 N9        30.15R
RICHLANDS      CLOUDY    72  63  73 N14G20    30.13S
ROANOKE RAPIDS NOT AVBL
ROCKY MOUNT    PTSUNNY   71  62  73 N10       30.20S
WASHINGTON     PTSUNNY   76  67  73 N10       30.16S
WHITEVILLE     CLOUDY    70  63  78 N6        30.12R

$$

AMZ130-135-150-152-154-156-158-170-250-252-270-ANZ085-086-088-633-658-670-201600-
MARINE OBSERVATIONS

STATION/POSITION TIME  TEMP    WIND        PRES    WAVE   SWELL
                       AIR SEA DIR/SP/G            HT/PER HT/PER
                 (UTC) (F)     (DEG/KT/KT) (MB)    (FT/S) (FT/S)
CHESAPEAKE LIGHT 1400   71      60/ 24/ 27 1022.6
BUOY 44014       1500   73 77   40/ 17/ 23 1020.8    7/ 8   5/ 8
DUCK             1500   72 74   40/ 16/ 18 1020.8
2E DUCK          1500                        N/A     7/ 9   2/11
OREGON INLET     1500   73 72   20/ 15/ 19 1020.5
BUOY 44095       1500      74                N/A     8/ 9   3/11
20E OREGON INLET NOT AVBL
HATTERAS CG      1500   72 73   20/ 12/ 16 1019.9
DIAMOND BUOY     1500   77      70/ 14/ 19 1018.7    9/10   7/10
CAPE LOOKOUT     1400   72      40/ 15/ 17 1019.7
BEAUFORT LAB     1500   73 75   30/  7/ 12 1019.0
30 SE NEW RIVER  1500   76 82   40/ 21/ 27 1018.4    5/ 5   2/ 9
5 SE WRIGHTSVILL 1400   71 80   40/ 19/ 21   N/A
BUOY 41002       1430   76 82  110/ 21/ 25 1015.9    7/ 6   2/16
BUOY 41004       1500   80 82   40/ 21/ 27 1015.1    7/ 7   3/ 9

$$



USA.gov is the U.S. government's official web portal to all federal, state and local government web resources and services.